CDT,Max TemperatureF,Mean TemperatureF,Min TemperatureF,Max Dew PointF,MeanDew PointF,Min DewpointF,Max Humidity, Mean Humidity, Min Humidity, Max Sea Level PressureIn, Mean Sea Level PressureIn, Min Sea Level PressureIn, Max VisibilityMiles, Mean VisibilityMiles, Min VisibilityMiles, Max Wind SpeedMPH, Mean Wind SpeedMPH, Max Gust SpeedMPH,PrecipitationIn, CloudCover, Events, WindDirDegrees
2013-10-1,86,72,57,64,60,57,100,74,43,29.97,29.91,29.86,10,10,8,17,8,23,0.00,0,,197
2013-10-2,86,72,57,63,58,50,100,68,39,30.06,29.99,29.92,10,10,8,14,3,16,0.00,2,,139
2013-10-3,80,70,60,70,65,59,100,82,58,29.91,29.86,29.79,10,9,2,22,5,26,0.02,4,Rain,183
2013-10-4,84,75,66,72,68,64,100,84,62,29.95,29.88,29.82,10,8,1,13,7,26,0.68,3,Rain,136
2013-10-5,73,62,48,70,58,41,94,77,52,29.89,29.85,29.81,10,10,9,16,7,20,0.00,4,,218
2013-10-6,51,46,41,46,41,37,100,81,58,29.84,29.79,29.75,10,10,4,15,7,18,0.01,5,Rain,234
2013-10-7,75,60,44,48,46,43,100,66,31,30.08,29.97,29.84,10,10,10,20,8,24,0.00,1,,261
2013-10-8,78,61,44,50,45,43,94,61,28,30.15,30.10,30.06,10,10,10,18,4,24,0.00,0,,170
2013-10-9,75,58,42,50,45,39,100,68,27,30.19,30.14,30.08,10,9,0,10,2,17,0.00,0,Fog,158
2013-10-10,77,60,42,54,49,41,100,74,39,30.15,30.07,29.99,10,8,0,14,2,21,0.00,0,Fog,155
2013-10-11,78,62,46,59,52,46,100,69,39,30.00,29.92,29.84,10,9,0,23,6,31,0.00,2,Fog,159
2013-10-12,71,61,50,59,46,36,88,55,28,30.23,30.03,29.86,10,10,9,18,10,24,0.00,2,,271
2013-10-13,66,52,39,39,34,30,87,55,26,30.43,30.36,30.23,10,10,1,12,3,16,0.00,0,,339
2013-10-14,66,50,35,43,37,32,93,61,32,30.39,30.25,30.00,10,10,2,20,5,22,0.00,0,,127
2013-10-15,66,58,51,61,49,39,100,71,45,30.00,29.88,29.82,10,9,1,21,13,29,0.05,6,Rain,218
2013-10-16,53,52,50,45,44,41,82,76,67,30.00,29.95,29.91,10,10,9,18,13,26,0.00,8,,271
2013-10-17,64,55,46,45,39,30,93,64,30,29.97,29.89,29.83,10,10,7,17,6,25,0.00,3,,243
2013-10-18,51,48,44,43,37,32,87,68,54,30.02,29.97,29.88,10,10,10,18,13,29,0.00,6,,277
2013-10-19,55,46,37,39,34,30,81,65,38,29.97,29.87,29.81,10,10,8,22,10,29,0.00,4,,244
2013-10-20,64,50,37,45,40,34,93,65,42,29.87,29.80,29.73,10,10,10,17,6,26,0.00,5,,235
2013-10-21,51,42,30,41,28,21,87,59,32,30.04,29.99,29.86,10,10,10,22,12,28,0.00,2,,298
2013-10-22,39,34,30,37,34,25,100,90,80,30.02,29.97,29.90,10,8,3,16,5,17,0.14,8,Rain,22
2013-10-23,44,38,32,36,31,23,93,75,43,30.10,30.06,30.02,10,10,10,15,9,28,0.00,6,,293
2013-10-24,42,35,28,32,25,21,86,63,45,30.38,30.25,30.11,10,10,10,16,9,25,0.00,6,,312
2013-10-25,55,40,24,32,25,19,93,59,25,30.44,30.30,30.07,10,10,10,20,5,28,0.00,0,,219
2013-10-26,53,44,35,34,28,25,75,52,35,30.14,30.04,29.92,10,10,10,24,14,30,0.00,1,,282
2013-10-27,59,42,24,30,28,23,93,61,29,30.12,30.03,29.94,10,10,7,16,5,20,0.00,0,,200
2013-10-28,60,46,32,39,34,28,93,68,39,30.32,30.19,30.04,10,10,10,18,5,25,0.00,0,Rain,56
2013-10-29,59,50,41,50,40,36,88,68,45,30.32,30.18,30.08,10,10,6,12,8,15,0.00,4,,113
2013-10-30,62,58,53,61,56,50,100,97,88,30.07,29.94,29.70,10,3,0,16,8,18,1.84,8,Fog-Rain,127
2013-10-31,64,54,44,63,52,43,100,94,87,29.69,29.52,29.39,10,8,1,21,11,26,0.25,7,Rain,259